Welcome to the New NWS' Forecast!
Most changes are behind the scenes, but click here for differences you might notice.

Regional Weather Roundup (RWR)

Issued by Gray - Portland, ME (GYX)

                            
298 
ASUS41 KGYX 181910
RWRGYX
WEATHER ROUNDUP FOR MAINE AND NEW HAMPSHIRE
NATIONAL WEATHER SERVICE GRAY ME
300 PM EDT WED JUL 18 2018

MEZ002-005-006-010-012-015-018-020-021-024-026-027-029-182000-
MAINE
  
CITY           SKY/WX    TMP DP  RH WIND       PRES   REMARKS
PORTLAND       FAIR      79  50  36 NW13G20   29.86R                  
SANFORD        FAIR      80  53  39 W8        29.87R                  
BAR HARBOR     PTSUNNY   75  59  57 N7G18     29.82                   
WISCASSET      FAIR      77  53  43 VRB5      29.86R                  
ROCKLAND       FAIR      76  56  49 NW12G17   29.83R                  
FRYEBURG       FAIR      78  46  32 N9        29.89R                  
LEWISTONAUBURN FAIR      75  46  35 N17       29.87R                  
AUGUSTA        FAIR      76  51  41 N8        29.86R                  
WATERVILLE     FAIR      75  49  39 VRB7G16   29.84R                  
BANGOR         FAIR      76  55  48 N14       29.84R                  
GREENVILLE       N/A     67  48  50 NW13G21   29.87S                  
MILLINOCKET    PTSUNNY   73  52  47 W10G20    29.85S                  
HOULTON        PTSUNNY   72  56  57 NW12G22   29.81R                  
PRESQUE ISLE   PTSUNNY   73  46  38 NW10G24   29.83S                  
FRENCHVILLE    FAIR      71  41  33 NW18G25   29.84R                  
CARIBOU        FAIR      74  47  38 NW9       29.82R                  
$$

NHZ002-005-008-009-011-012-014-182000-
NEW HAMPSHIRE
  
CITY           SKY/WX    TMP DP  RH WIND       PRES   REMARKS
PORTSMOUTH     MOSUNNY   79  51  37 NW12      29.85R                  
ROCHESTER      FAIR      78  52  40 NW7       29.87R                  
NASHUA         FAIR      78  49  35 NW15      29.89R                  
MANCHESTER     FAIR      78  47  33 NW14      29.87R                  
CONCORD        FAIR      78  48  34 NW12      29.89R                  
LACONIA        FAIR      75  44  33 NW15      29.90R                  
PLYMOUTH       FAIR      74  48  39 NW13      29.91R                  
BERLIN         FAIR      73  45  36 N13       29.93R                  
WHITEFIELD     FAIR      73  45  36 MISG      29.94R                  
JAFFREY        FAIR      77  52  41 VRB6      29.92S                  
KEENE          FAIR      80  53  39 NW10      29.91R                  
LEBANON        FAIR      78  46  32 N13G20    29.92R                  
MT WASHINGTON  MOSUNNY   45  37  76 NW26G39     N/A                   
$$

VTZ005-007-008-182000-
VERMONT
  
CITY           SKY/WX    TMP DP  RH WIND       PRES   REMARKS
ST JOHNSBURY     N/A     74  46  36 MISG      29.92S                  
MONTPELIER     FAIR      71  45  39 N13G22    29.99S                  
BURLINGTON     FAIR      76  42  29 N14G22    29.96F                  
$$

MAZ007-012-024-CTZ003-RIZ002-NYZ038-NYZ072-182000-
SOUTHERN NEW ENGLAND AND NY
  
CITY           SKY/WX    TMP DP  RH WIND       PRES   REMARKS
BOSTON         FAIR      83  53  35 NW12G21   29.85S                  
WORCESTER      SUNNY     75  55  50 N12G18    29.91R                  
NANTUCKET      FAIR      77  61  57 NE18G26   29.84S                  
PROVIDENCE     FAIR      84  53  34 NW10G23   29.85F                  
HARTFORD       FAIR      82  54  37 N13       29.88S                  
ALBANY         FAIR      80  54  40 NW9G18    29.93S                  
NEW YORK CITY  FAIR      84  55  36 N14       29.89S                  
$$

ANZ081-ANZ082-ANZ150-NHZ014-MEZ023>029-182000-
COASTAL MARINE OBSERVATIONS
  
STATION/POSITION TIME  TEMP    WIND        PRES    WAVE
                       AIR SEA DIR/SP/G            HT/PER
                 (UTC) (F)     (DEG/KT/KT) (MB)    (FT/S)
MOUNT DESERT ROC 1900   67     260/  5/  6 1009.9R
MATINICUS ROCK   1800   68     350/  7/  8 1009.8R
ISLE OF SHOALS   1800   74     320/  3/  4 1010.3R
JEFFREYS LEDGE   1836      71                N/A     3/ 8
$$

.............KEY..............
   WCI - WIND CHILL
   TC  - TEMPERATURE IN CELSIUS
   VSB - VISIBILITY IN MILES
   HX  - HEAT INDEX
   FAIR- INDICATES FEW OR NO CLOUDS BELOW 12,000 FT, WITH NO 
         SIGNIFICANT WEATHER AND/OR OBSTRUCTIONS TO VISIBILITY.